DW9558 Weather Reports


Display with metric or nautical units.
time (UTC)temp
F
wind
direction
speed
MPH
gust
MPH
rain 1hr
in
rain 24hr
in
rain mn
in
humidity
%
barometer
mb
20260831033021 76 172 3.0 7.0 0.00 0.00 0.00 48 1015.4
20260831031517 78 172 0.0 4.0 0.00 0.00 0.00 44 1015.3
20260831030019 79 172 0.0 6.0 0.00 0.00 0.00 42 1015.1
20260831024519 80 172 1.0 6.0 0.00 0.00 0.00 41 1015.0
20260831023015 81 172 2.0 8.0 0.00 0.00 0.00 39 1015.1
20260831021514 82 171 1.0 4.0 0.00 0.00 0.00 37 1015.0
20260831020014 83 171 1.0 6.0 0.00 0.00 0.00 36 1015.0
20260831014520 84 171 2.0 6.0 0.00 0.00 0.00 33 1014.9
20260831013012 85 171 1.0 6.0 0.00 0.00 0.00 31 1014.9
20260831011514 86 171 1.0 3.0 0.00 0.00 0.00 33 1014.9
20260831010011 87 171 1.0 7.0 0.00 0.00 0.00 34 1015.0
20260831004510 88 171 1.0 5.0 0.00 0.00 0.00 34 1015.1
20260831003010 89 171 1.0 5.0 0.00 0.00 0.00 32 1015.0
20260831001508 90 171 0.0 4.0 0.00 0.00 0.00 30 1015.2
20260831000004 91 171 0.0 3.0 0.00 0.00 0.00 29 1015.3
20260830234608 90 171 1.0 5.0 0.00 0.00 0.00 30 1015.4
20260830233056 90 171 0.0 4.0 0.00 0.00 0.00 30 1015.5
20260830231552 90 171 0.0 4.0 0.00 0.00 0.00 31 1015.7
20260830230051 89 171 0.0 5.0 0.00 0.00 0.00 31 1015.8
20260830224552 89 171 1.0 6.0 0.00 0.00 0.00 32 1016.0
20260830223045 89 171 1.0 4.0 0.00 0.00 0.00 34 1016.2
20260830221545 87 171 2.0 4.0 0.00 0.00 0.00 35 1016.4
20260830220038 86 171 1.0 5.0 0.00 0.00 0.00 37 1016.7
20260830214538 86 171 0.0 4.0 0.00 0.00 0.00 38 1016.9
20260830213035 86 171 1.0 4.0 0.00 0.00 0.00 37 1017.1
20260830211532 86 171 0.0 4.0 0.00 0.00 0.00 38 1017.4
20260830210026 84 171 1.0 4.0 0.00 0.00 0.00 38 1017.4
20260830204522 83 171 0.0 3.0 0.00 0.00 0.00 40 1017.7
20260830203030 82 171 2.0 6.0 0.00 0.00 0.00 42 1017.9
20260830201528 81 171 0.0 4.0 0.00 0.00 0.00 45 1017.9
20260830200013 80 171 2.0 5.0 0.00 0.00 0.00 46 1018.1
20260830194511 80 171 1.0 3.0 0.00 0.00 0.00 46 1018.2
20260830193009 79 171 0.0 5.0 0.00 0.00 0.00 49 1018.5
20260830191504 77 171 0.0 3.0 0.00 0.00 0.00 50 1018.6
20260830184556 75 171 0.0 4.0 0.00 0.00 0.00 54 1018.9
20260830183105 74 171 0.0 2.0 0.00 0.00 0.00 56 1018.9
20260830181556 73 171 1.0 4.0 0.00 0.00 0.00 57 1019.1
20260830180045 72 171 0.0 4.0 0.00 0.00 0.00 58 1019.1
20260830174542 71 171 0.0 3.0 0.00 0.00 0.00 59 1019.3
20260830173050 70 171 0.0 1.0 0.00 0.00 0.00 62 1019.4
20260830171541 68 171 0.0 3.0 0.00 0.00 0.00 64 1019.3
20260830170030 67 171 0.0 1.0 0.00 0.00 0.00 65 1019.3
20260830164533 66 171 0.0 3.0 0.00 0.00 0.00 67 1019.2
20260830163023 66 171 0.0 0.0 0.00 0.00 0.00 69 1019.2
20260830161524 65 171 0.0 4.0 0.00 0.00 0.00 70 1019.2
20260830160016 64 171 0.0 0.0 0.00 0.00 0.00 72 1019.1
20260830154512 63 171 0.0 0.0 0.00 0.00 0.00 74 1019.1
20260830153007 62 171 0.0 0.0 0.00 0.00 0.00 76 1019.1
20260830151503 61 171 0.0 0.0 0.00 0.00 0.00 77 1019.1
20260830150100 60 171 0.0 0.0 0.00 0.00 0.00 78 1019.0
20260830144603 59 171 0.0 2.0 0.00 0.00 0.00 80 1019.0
20260830143100 59 171 0.0 0.0 0.00 0.00 0.00 81 1018.7
20260830141550 58 171 0.0 0.0 0.00 0.00 0.00 82 1018.6
20260830140047 58 171 0.0 4.0 0.00 0.00 0.00 82 1018.4
20260830134545 58 171 0.0 3.0 0.00 0.00 0.00 81 1018.3
20260830133100 58 171 0.0 0.0 0.00 0.00 0.00 80 1018.1
20260830131546 59 171 0.0 0.0 0.00 0.00 0.00 80 1018.1
20260830130039 59 171 0.0 3.0 0.00 0.00 0.00 79 1017.8
20260830124551 59 171 0.0 0.0 0.00 0.00 0.00 79 1017.8
20260830123045 59 171 0.0 3.0 0.00 0.00 0.00 78 1017.9
20260830121536 59 171 0.0 2.0 0.00 0.00 0.00 78 1017.8
20260830120037 60 171 0.0 3.0 0.00 0.00 0.00 77 1017.6
20260830114537 60 171 0.0 1.0 0.00 0.00 0.00 76 1017.7
20260830113030 60 171 0.0 2.0 0.00 0.00 0.00 76 1017.7
20260830111530 61 171 0.0 3.0 0.00 0.00 0.00 74 1017.6
20260830110029 61 171 0.0 3.0 0.00 0.00 0.00 73 1017.6
20260830104526 61 171 1.0 6.0 0.00 0.00 0.00 72 1017.5
20260830103025 62 171 0.0 5.0 0.00 0.00 0.00 71 1017.4
20260830101526 62 171 0.0 5.0 0.00 0.00 0.00 70 1017.4
20260830100021 62 171 0.0 7.0 0.00 0.00 0.00 69 1017.5
20260830094519 63 171 1.0 6.0 0.00 0.00 0.00 68 1017.6
20260830093019 63 171 1.0 4.0 0.00 0.00 0.00 67 1017.6
20260830091515 63 171 1.0 8.0 0.00 0.00 0.00 67 1017.6
20260830090034 64 171 0.0 5.0 0.00 0.00 0.00 66 1017.7
20260830084513 64 171 0.0 6.0 0.00 0.00 0.00 66 1017.7
20260830083032 64 171 1.0 5.0 0.00 0.00 0.00 66 1017.6
20260830081511 64 171 0.0 3.0 0.00 0.00 0.00 66 1017.7
20260830080010 64 171 0.0 5.0 0.00 0.00 0.00 66 1017.7
20260830074510 65 171 0.0 5.0 0.00 0.00 0.00 65 1017.6
20260830073007 65 171 0.0 5.0 0.00 0.00 0.00 65 1017.6
20260830071509 65 171 0.0 3.0 0.00 0.00 0.00 65 1017.6
20260830070011 65 171 0.0 4.0 0.00 0.00 0.00 65 1017.4
20260830064503 66 171 0.0 0.0 0.00 0.00 0.00 65 1017.5
20260830063101 66 171 0.0 6.0 0.00 0.00 0.00 65 1017.6
20260830061608 66 171 1.0 5.0 0.00 0.00 0.00 65 1017.5
20260830060100 66 171 1.0 5.0 0.00 0.00 0.00 64 1017.6
20260830054559 67 172 1.0 5.0 0.00 0.00 0.00 63 1017.6
20260830053059 67 172 0.0 3.0 0.00 0.00 0.00 62 1017.4
20260830051559 68 172 0.0 4.0 0.00 0.00 0.00 62 1017.6
20260830050100 68 172 1.0 5.0 0.00 0.00 0.00 61 1017.2
20260830044557 69 173 0.0 1.0 0.00 0.00 0.00 59 1017.4
20260830043057 70 173 0.0 6.0 0.00 0.00 0.00 56 1017.2
20260830041557 71 173 2.0 6.0 0.00 0.00 0.00 55 1017.0
20260830040059 71 173 2.0 7.0 0.00 0.00 0.00 54 1016.7
20260830034614 72 171 2.0 5.0 0.00 0.00 0.00 52 1016.5